Location: Launois
(49.6535°N, 4.5395°E)
Time: 13:47:54
(UTC+00:00)

DELTA 2 R/B (1) - Pass Details

Date: 23 May 2024
Orbit: 788 x 801 km, 39.6° (Epoch: 18 June)

Event Time Altitude Azimuth Distance (km) Brightness Sun altitude
Exits shadow 02:07:04 15° 237° (WSW) 2,023 5.1 -12.4°
Maximum altitude 02:10:32 27° 189° (S) 1,474 4.5 -12.0°
Drops below altitude 10° 02:15:07 10° 133° (SE) 2,346 6.0 -11.6°
Sets 02:17:55 0° 121° (ESE) 3,272 6.9 -11.3°
